STARLINK-34546

Last updated on Sat Jul 19 2025 00:02:08 GMT+0000 (Coordinated Universal Time)

1 64718U 25142Y 25199.56313812 -.00240360 00000+0 -38096-2 0 9999 2 64718 70.0004 194.6771 0003349 277.9518 82.1290 15.54025977 4339
UTC large
Height (km)
Speed (km/s)
/
Latitude / Longitude
Inclination (degrees)
Orbital Period (minutes)
Azimuth
Elevation
Range (km)
Doppler Factor

Next 0 passes for location: London (51.5072 / 0.1276)

Sorry there are no passes over London.